Location: Unspecified
(41.9031°N, 12.4386°E)
Time: 17:48:34
(UTC+02:00)

ISS - Pass Details

Date: 27 May 2020
Orbit: 417 x 420 km, 51.6° (Epoch: 26 May)

Event Time Altitude Azimuth Distance (km) Brightness Sun altitude
Rises 22:21:34 0° 308° (NW) 2,367 1.7 -15.9°
Reaches altitude 10° 22:23:53 10° 321° (NW) 1,501 0.4 -16.2°
Maximum altitude 22:26:47 26° 21° (NNE) 858 -1.9 -16.5°
Enters shadow 22:28:52 15° 72° (ENE) 1,229 -1.6 -16.8°
